THOR ABLESTAR DEB, 355

Orbit data source: Space-Track

THOR ABLESTAR DEB, 355 is space debris in LEO originally from a launch on Thu, 29 Jun 1961 UTC launched from the Air Force Eastern Test Range (AFETR). Debris objects in space refer to the collection of defunct objects orbiting the Earth. Examples of debris include non-operational satellites, rocket bodies, and fragments generated from explosions, collisions, or faulty payload assembly.

Loading next visibility...
Identifier
355, 1961-015DV
Orbit
LEO
Country
Flag of USUS
Related business
Manufacturer
Unknown
Mission
Spacecraft
Bus & Motor
Unknown
Mass
Unknown
Launch date (UTC)
1961-06-29 (65 years ago)
Launch vehicle
Unknown
Launch site
Air Force Eastern Test Range (AFETR)
Object type
Payload
Rocket body
Debris
Shape & HBR
Unknown shape, 0.1 m
Radar Cross Section
Medium (>0.1 m² and <1 m²)

Expand to show TLE details & history
Last TLE update: 12 hours ago

TLE from 12 hours ago
0 THOR ABLESTAR DEB
1   355U 61015DV  26163.88091853  .00000444  00000-0  86039-3 0  9997
2   355  67.2266  17.9791 0244949 210.4986 160.9861 13.34145993148455
Epoch: 2026-06-12T21:08Z
TLE epoch observation values (Epoch: 2026-06-12T21:08:31.360Z)
Latitude
11.36386°
Longitude
164.46033°
Altitude
1,306.846 km
Speed
7.12 km/s
True Right ascension
01h 31m 10s
True Declination
11° 18' 08"
Sunlit
Object was in daylight at epoch
Visualization orbit readout
Latitude
Unknown
Longitude
Unknown
Altitude
Unknown
Speed
Unknown
Apparent Right ascension
Unknown
Apparent Declination
Unknown
Sunlit
N/A
Visualization observer readout
Local Sidereal Time
19:27:09
Azimuth
Unknown
Elevation
Unknown
Doppler factor
Unknown
Orbital elements
Apogee altitude
1,313.455 km
Perigee altitude
945.655 km
Semi-major axis
7,507.692 km
Eccentricity
0.02449
Inclination
67.2266°
RAAN
17.9791°
Arg. of periapsis
210.4986°
True anomaly
161.87479°
Mean anomaly
160.9861°
Eccentric anomaly
161.43298°
Mean motion
3.33644 °/min
Orbital period
107.9 mins
BSTAR
0.00086039
Loading maneuver chart data...
Computing Atmospheric mass density...
Loading historical data...
Loading historical data...
Loading historical data...
Loading historical data...
Loading historical data...
Loading historical data...
Loading historical data...

Documentation

Showing up to 5 results
|